[Date Prev][Date Next][Thread Prev][Thread Next] - [Date Index][Thread Index][Author Index]

2 Line ISS Keps 1-14



ISS
1 25544U 98067A   05014.39397507  .00023807  00000-0  17616-3 0  5847
2 25544  51.6403 327.1881 0003240 197.0694 308.0593 15.72807838351507
----
Via the sarex mailing list at AMSAT.ORG courtesy of AMSAT-NA.
To unsubscribe, send "unsubscribe sarex" to Majordomo@amsat.org



AMSAT Top AMSAT Home